Home   Weather   Nagano   Past weeks

Flag for Japan Past Weather in Nagano, Japan — Yesterday and Last 2 Weeks

Now
68 °F

Light rain. Overcast.


Feels Like: 68 °F
Forecast: 62 / 73 °F
Wind: No wind

Location: Nagano

Current Time: Sep 29, 2016 at 5:39:57 AM

Latest Report: Sep 29, 2016 at 3:00 AM


Visibility: 6 mi

Pressure: 29.83 "Hg

Humidity: 100%

Dew Point: 68 °F

Location of NaganoLocation

Past Weather in Nagano — Graph

°F

Nagano Temperature Yesterday

Maximum temperature yesterday: 73 °F (at 11:00 AM)
Minimum temperature yesterday: 69 °F (at 5:00 AM)
Average temperature yesterday: 71 °F

High & Low Weather Summary for the Past Weeks

 TemperatureHumidityPressure
High86 °F (Sep 27, 3:00 PM)100% (Sep 18, 4:00 AM)30.14 "Hg (Sep 18, 4:00 AM)
Low60 °F (Sep 20, 6:00 AM)51% (Sep 25, 1:00 PM)29.71 "Hg (Sep 18, 2:00 PM)
Average69 °F88%29.98 "Hg
* Reported Sep 14 3:00 AM — Sep 29 3:00 AM, Nagano, Weather by CustomWeather, © 2016

Note: Actual official high and low records may vary slightly from our data, if they occured in-between our weather recording intervals... More about our weather records

Advertising

Nagano Weather History for the Previous 24 Hours

Scroll right to see more
 ConditionsComfort  
Time TempWeatherWind HumidityBarometerVisibility
3:00 AM
Thu, Sep 29
68 °FLight rain. Overcast.No wind100%29.83 "Hg6 mi
2:00 AM68 °FMild.3 mph99%29.85 "HgN/A
1:00 AM69 °FMild.2 mph100%29.87 "HgN/A
12:00 AM68 °FMild.3 mph100%29.88 "HgN/A
11:00 PM
Wed, Sep 28
69 °FMild.3 mph100%29.90 "HgN/A
10:00 PM69 °FMild.2 mph100%29.90 "HgN/A
9:00 PM70 °FLight rain. Overcast.5 mph100%29.92 "Hg5 mi
8:00 PM70 °FMild.2 mph98%29.92 "HgN/A
7:00 PM71 °FMild.2 mph99%29.92 "HgN/A
6:00 PM71 °FMild.3 mph100%29.91 "HgN/A
5:00 PM71 °FMild.6 mph99%29.89 "HgN/A
4:00 PM72 °FMild.5 mph100%29.89 "HgN/A
3:00 PM72 °FSprinkles. Overcast.3 mph95%29.86 "Hg5 mi
2:00 PM72 °FMild.2 mph97%29.85 "HgN/A
1:00 PM71 °FMild.1 mph95%29.88 "HgN/A
12:00 PM72 °FMild.3 mph96%29.91 "HgN/A
11:00 AM73 °FMild.2 mph85%29.90 "HgN/A
10:00 AM72 °FMild.3 mph87%29.92 "HgN/A
9:00 AM71 °FOvercast.2 mph89%29.93 "Hg6 mi
8:00 AM70 °FMild.1 mph93%29.94 "HgN/A
7:00 AM69 °FMild.1 mph95%29.95 "HgN/A
6:00 AM69 °FMild.3 mph95%29.94 "HgN/A
5:00 AM69 °FMild.3 mph96%29.94 "HgN/A
Weather by CustomWeather, © 2016

See weather overviewHow to use our weather pages